Weather History for Beale AFB, CA

Change the Weather History Date:

Friday, November 29, 2013

  Actual Average Record
Temperature  
Mean Temperature 53 °F -  
Max Temperature 66 °F 57 °F 71 °F (2004)
Min Temperature 40 °F 41 °F 29 °F (2010)
Degree Days  
Heating Degree Days 12    
Growing Degree Days 3 (Base 50)    
Moisture  
Dew Point 39 °F    
Average Humidity 62    
Maximum Humidity 89    
Minimum Humidity 34    
Precipitation  
Precipitation 0.00 in - - ()
Sea Level Pressure  
Sea Level Pressure 30.29 in    
Wind  
Wind Speed 3 mph (NNE)    
Max Wind Speed 10 mph    
Max Gust Speed -    
Visibility 8 miles    
Events      
Averages and records for this station are not official NWS values.
T = Trace of Precipitation, MM = Missing Value Source: NWS Daily Summary

Daily Weather History Graph

Daily Weather History Graph

Search for Another Location

Airport:

Trip Planner

Search our weather history database for the weather conditions in past years. The results will help you decide how hot, cold, wet, or windy it might be!

Date:

Astronomy

Nov. 29, 2013 Rise Set
Actual Time 7:04 AM PST 4:43 PM PST
Civil Twilight 6:34 AM PST 5:13 PM PST
Nautical Twilight 6:01 AM PST 5:46 PM PST
Astronomical Twilight 5:29 AM PST 6:18 PM PST
Moon 3:17 AM PST (11/29) 2:30 PM PST (11/29)
Length of Visible Light 10h 38m
Length of Day
9h 39m
Waning Crescent, 13% of the Moon is Illuminated
Nov 29
Waning Crescent
Dec 2
New
Dec 9
First Quarter
Dec 17
Full
Dec 25
Last Quarter

Hourly Weather History & Observations

Time (PST) Temp. Windchill Dew Point Humidity Pressure Visibility Wind Dir Wind Speed Gust Speed Precip Events Conditions
12:08 AM 48.2 °F - 39.2 °F 71% 30.06 in 3.0 mi ENE 4.6 mph - N/A   Haze
12:23 AM 48.2 °F - 37.4 °F 66% 30.06 in 8.0 mi ENE 3.5 mph - N/A   Clear
12:38 AM 44.6 °F 43.1 °F 37.4 °F 76% 30.06 in 9.0 mi East 3.5 mph - N/A   Clear
12:58 AM 45.9 °F - 37.8 °F 73% 30.29 in 10.0 mi Calm Calm - N/A   Clear
1:58 AM 45.5 °F - 37.4 °F 73% 30.32 in 10.0 mi Calm Calm - N/A   Clear
2:58 AM 43.7 °F 42.1 °F 39.7 °F 86% 30.33 in 10.0 mi NW 3.5 mph - N/A   Clear
3:58 AM 44.6 °F 42.2 °F 40.6 °F 86% 30.34 in 10.0 mi North 4.6 mph - N/A   Clear
4:58 AM 43.0 °F 41.3 °F 39.9 °F 89% 30.35 in 10.0 mi NE 3.5 mph - N/A   Clear
5:58 AM 41.9 °F 40.0 °F 37.0 °F 83% 30.36 in 10.0 mi ESE 3.5 mph - N/A   Clear
6:58 AM 40.6 °F - 36.7 °F 86% 30.38 in 10.0 mi ENE 1.2 mph - N/A   Clear
7:58 AM 43.2 °F 41.5 °F 40.1 °F 89% 30.39 in 10.0 mi ENE 3.5 mph - N/A   Clear
8:58 AM 51.1 °F - 42.3 °F 72% 30.41 in 10.0 mi NNW 4.6 mph - N/A   Clear
9:58 AM 56.5 °F - 42.4 °F 59% 30.41 in 10.0 mi NNW 3.5 mph - N/A   Clear
10:58 AM 60.4 °F - 39.9 °F 47% 30.40 in 10.0 mi WNW 8.1 mph - N/A   Clear
11:58 AM 61.5 °F - 40.6 °F 46% 30.38 in 10.0 mi WNW 5.8 mph - N/A   Clear
12:58 PM 64.0 °F - 40.3 °F 42% 30.36 in 10.0 mi NW 5.8 mph - N/A   Clear
1:58 PM 65.8 °F - 37.8 °F 36% 30.33 in 10.0 mi Variable 1.2 mph - N/A   Clear
2:58 PM 66.6 °F - 37.0 °F 34% 30.35 in 6.0 mi West 3.5 mph - N/A   Haze
3:58 PM 64.4 °F - 41.0 °F 42% 30.36 in 0.8 mi Calm Calm - N/A   Haze
4:03 PM 64.4 °F - 41.0 °F 42% 30.13 in 0.5 mi Calm Calm - N/A   Haze
4:08 PM 64.4 °F - 41.0 °F 42% 30.13 in 1.2 mi Calm Calm - N/A   Haze
4:13 PM 62.6 °F - 39.2 °F 42% 30.13 in 7.0 mi Calm Calm - N/A   Clear
4:23 PM 62.6 °F - 41.0 °F 45% 30.13 in 2.5 mi NNW 1.2 mph - N/A   Haze
4:28 PM 60.8 °F - 39.2 °F 45% 30.13 in 1.0 mi North 1.2 mph - N/A   Haze
4:33 PM 60.8 °F - 39.2 °F 45% 30.13 in 0.8 mi North 2.3 mph - N/A   Haze
4:43 PM 59.0 °F - 39.2 °F 48% 30.13 in 1.5 mi NE 2.3 mph - N/A   Haze
4:48 PM 59.0 °F - 39.2 °F 48% 30.13 in 2.5 mi NNE 2.3 mph - N/A   Haze
4:53 PM 57.2 °F - 39.2 °F 51% 30.13 in 7.0 mi NNE 1.2 mph - N/A   Clear
4:58 PM 57.6 °F - 39.4 °F 51% 30.36 in 10.0 mi NNE 2.3 mph - N/A   Clear
5:58 PM 53.1 °F - 39.0 °F 59% 30.38 in 10.0 mi East 5.8 mph - N/A   Clear
6:58 PM 50.7 °F - 39.9 °F 67% 30.38 in 10.0 mi East 8.1 mph - N/A   Clear
7:58 PM 50.5 °F - 39.9 °F 67% 30.39 in 10.0 mi East 10.4 mph - N/A   Clear
8:58 PM 45.9 °F 44.6 °F 40.5 °F 81% 30.42 in 10.0 mi WNW 3.5 mph - N/A   Clear
9:58 PM 47.5 °F - 39.6 °F 74% 30.43 in 10.0 mi East 5.8 mph - N/A   Clear
10:58 PM 45.9 °F 42.9 °F 38.8 °F 76% 30.43 in 10.0 mi East 5.8 mph - N/A   Clear
11:58 PM 46.6 °F - 39.2 °F 75% 30.44 in 10.0 mi East 6.9 mph - N/A   Clear